Location: Bushey
(51.6333°N, 0.3667°W)
Time: 17:24:37
(UTC+00:00)

CSL-04 Debris - Pass Details

Date: 03 March 2021
Orbit: 826 x 848 km, 98.9° (Epoch: 17 April)

Event Time Altitude Azimuth Distance (km) Brightness Sun altitude
Rises 18:24:49 0° 148° (SSE) 3,377 7.0 -6.9°
Reaches altitude 10° 18:27:11 10° 145° (SE) 2,450 6.3 -7.3°
Maximum altitude 18:32:30 57° 67° (ENE) 988 4.3 -8.1°
Drops below altitude 10° 18:37:52 10° 351° (N) 2,480 6.8 -8.9°
Sets 18:40:17 0° 347° (NNW) 3,422 7.6 -9.3°
